Regional Weather Roundup
Issued by NWS

Home | Current Version | Previous Version | Text Only | Print | Product List | Glossary Off
Versions: 1 2 3 4 5 6 7 8 9 10 11 12 13 14 15 16 17 18 19 20 21 22 23 24 25 26 27 28 29 30 31 32 33 34 35 36 37 38 39 40 41 42 43 44 45 46 47 48 49 50

318
ASUS43 KBIS 291002
RWRND

NORTH DAKOTA REGIONAL WEATHER ROUNDUP
NATIONAL WEATHER SERVICE BISMARCK ND
500 AM CDT SAT JUL 29 2017

NOTE: "FAIR" INDICATES FEW OR NO CLOUDS BELOW 12,000 FEET WITH NO
SIGNIFICANT WEATHER AND/OR OBSTRUCTIONS TO VISIBILITY.


NDZ001>003-009>011-017-291100-
NORTHWEST NORTH DAKOTA

CITY           SKY/WX    TMP DP  RH WIND       PRES   REMARKS
WILLISTON      PTCLDY    72  60  66 SE6       29.97R
MINOT          CLEAR     72  59  63 MISG      29.98S
MINOT AFB      CLEAR     68  59  73 S7        29.97S
$$

NDZ018>021-031>035-040>046-291100-
SOUTHWEST NORTH DAKOTA

CITY           SKY/WX    TMP DP  RH WIND       PRES   REMARKS
BISMARCK       CLEAR     65  60  84 SE8       30.04R
DICKINSON      CLEAR     64  60  87 S9        30.01S
GARRISON         N/A     64  61  90 S5        30.01S
HETTINGER ARPT CLEAR     63  58  83 SE3       30.05S
$$

NDZ004>008-012>016-024-026-027-054-291100-
NORTHEAST NORTH DAKOTA

CITY           SKY/WX    TMP DP  RH WIND       PRES   REMARKS
GRAND FORKS    CLEAR     63  61  93 S8        30.03S
GRND FRKS AFB  PTCLDY    63  60  89 S8        30.04S
DEVILS LAKE    CLEAR     70  61  73 SW16      30.05R
$$

NDZ022-023-025-028>030-036>039-047>053-291100-
SOUTHEAST NORTH DAKOTA

CITY           SKY/WX    TMP DP  RH WIND       PRES   REMARKS
FARGO          CLEAR     66  62  87 S6        30.07R
JAMESTOWN      CLEAR     59  57  93 SE5       30.06S
$$





USA.gov is the U.S. government's official web portal to all federal, state and local government web resources and services.